Starlink 34246

operational
NORAD ID: 64769 Int'l Des: 2025-147 Owner: SPXS Country: US Constellation: starlink
LEOCIRCULAR

Über Starlink 34246

Beschreibung wird geladen...

Live-Position

3D-Globus wird geladen...

Nächste Überflüge

Höhenverlauf

Altitude vs Time

uPlot chart will show altitude changes over time

Zweizeiliger Elementsatz

1 64769U 25147Q 25340.35794943 .00051884 00000-0 17502-2 0 9992
2 64769 53.1602 316.1727 0000716 54.0015 306.1052 15.30226950 24463
Epoch: 6. Dez. 2025 • Age: 26 hours

Aktueller Status

Höhe 489.8 km
Geschwindigkeit 7.62 km/s
Subsatellitenpunkt -43.29°S, 61.4°W
Startdatum 8. Juli 2025
Alter 0.4 years
Typ internet

Technische Details

Klassifizierung Payload
Masse 575.00 kg
Trockenmasse 530.00 kg
Gesamtmasse 575.00 kg
Länge 0.30 m
Durchmesser 4.10 m
Spannweite 29.00 m
Form Box + pan
Hersteller SPXS
Bus-Typ Starlink V2MO
Phasenstatus In Orbit
Besitzer/Staat SPXS/US

Große Konstellationen

Loading constellations...